#timestamp,LO_Frequency,Hit,StdDev 
1564380015.8,286046998.3,N
1564380035.6,286046998.9,N
1564380055.4,286046998.7,N
1564380075.3,286047001.2,N
1564380095.1,286047002.2,N
1564380115.8,286047000.5,N
1564380135.7,286047002.6,N
1564380155.5,286047002.6,N
1564380175.4,286046999.8,N
1564380195.2,286047002.2,N
1564380215.0,286047001.7,N
1564380215.9,286047001.7,N
1564380235.8,286047001.6,N
1564380255.6,286047004.3,N
1564380275.5,286047001.4,N
1564380295.3,286047001.5,N
1564380315.1,286047002.6,N
1564380335.9,286046999.9,N
1564380355.7,286047000.1,N
1564380375.5,286047002.6,N
1564380395.4,286047001.4,N
1564380415.2,286047001.7,N
1564380435.1,286047001.7,N
1564380436.0,286047001.7,N
1564380455.8,286047004.0,N
1564380475.6,286047003.8,N
1564380495.5,286047001.4,N
1564380515.3,286047002.0,N
1564380535.2,286047001.8,N
1564380555.9,286047001.9,N
1564380575.7,286047002.1,N
1564380595.6,286047002.2,N
1564380615.4,286047001.9,N
1564380635.2,286047002.4,N
1564380655.1,286047002.7,N
1564380656.0,286047002.7,N
1564380675.8,286047001.5,N
1564380695.7,286047002.1,N
1564380715.5,286047000.1,N
1564380735.4,286047000.3,N
1564380755.2,286047000.2,N
1564380775.0,286047000.9,N
1564380776.0,286047000.9,N
1564380795.8,286046999.9,N
1564380815.6,286047001.1,N
1564380835.5,286046998.1,N
1564380855.3,286047001.2,N
1564380875.1,286046998.4,N
1564380895.9,286046998.9,N
1564380915.7,286046999.3,N
1564380935.6,286046999.0,N
1564380955.4,286046998.8,N
1564380975.2,286046996.6,N
1564380995.1,286046997.3,N
1564380996.0,286046997.3,N
1564381015.8,286046997.4,N
1564381035.7,286046997.5,N
1564381055.5,286046997.2,N
1564381075.3,286046997.7,N
1564381095.2,286046997.4,N
1564381115.0,286046999.6,N
1564381115.9,286046999.6,N
1564381135.7,286046996.9,N
1564381155.6,286046997.4,N
1564381175.4,286046996.6,N
1564381195.3,286046996.8,N
1564381215.1,286046997.5,N
1564381216.0,286046997.5,N
1564381235.8,286046997.7,N
1564381255.7,286046997.3,N
1564381275.5,286046997.0,N
1564381295.4,286046997.8,N
1564381315.2,286046997.1,N
1564381335.0,286046997.4,N
1564381335.9,286046997.4,N
1564381355.8,286046997.6,N
1564381375.6,286046997.4,N
1564381395.5,286046997.9,N
1564381415.3,286046997.7,N
1564381435.1,286046997.6,Y
1564381455.9,286046999.5,P
1564381475.7,286046998.9,N
1564381495.5,286046998.6,N
1564381515.4,286046998.3,N
1564381535.2,286046998.6,N
1564381555.1,286046998.8,N
1564381556.0,286046998.8,N
1564381575.8,286047000.9,N
1564381595.6,286047000.9,N
1564381615.5,286046998.2,N
1564381635.3,286047001.1,N
1564381655.2,286046998.2,N
1564381675.9,286047001.0,N
1564381695.7,286046998.3,N
1564381715.6,286046998.8,N
1564381735.4,286047000.7,N
1564381755.2,286047001.1,N
1564381775.1,286046998.2,N
1564381795.9,286046998.5,N
1564381815.7,286047001.1,N
1564381835.5,286047001.0,N
1564381855.4,286046998.1,N
1564381875.2,286046998.2,N
1564381895.1,286047000.5,N
1564381896.0,286047000.5,N
1564381915.8,286046998.6,N
1564381935.6,286046998.1,N
1564381955.5,286046999.9,N
1564381975.3,286047000.6,N
1564381995.1,286046998.8,N
1564382015.9,286046998.3,N
1564382035.7,286047000.4,N
1564382055.6,286047000.3,N
1564382075.4,286047000.4,N
1564382095.2,286047000.8,N
1564382115.1,286047000.5,N
1564382116.0,286047000.5,N
1564382135.8,286047001.0,N
1564382155.7,286046998.1,N
1564382175.5,286046998.1,N
1564382195.3,286046999.6,N
1564382215.2,286046999.0,N
1564382235.9,286046998.5,N
1564382255.7,286047000.6,N
1564382275.6,286047000.5,N
1564382295.4,286046999.7,N
1564382315.3,286047000.0,N
1564382335.1,286046999.8,N
1564382336.0,286046999.8,N
1564382355.8,286046999.7,N
1564382375.7,286047000.2,N
1564382395.5,286047000.5,N
1564382415.3,286047000.2,N
1564382435.2,286047002.8,Y
1564382455.0,286047000.2,P
1564382455.9,286047000.2,N
1564382475.8,286047002.4,P
1564382495.6,286047002.1,N
1564382515.4,286046999.7,N
1564382535.3,286047000.1,N
1564382555.1,286047000.4,N
1564382575.9,286047000.1,N
1564382595.7,286047000.3,N
1564382615.5,286047000.9,N
1564382635.4,286047000.4,N
1564382655.2,286047000.1,N
1564382675.1,286046999.7,N
1564382676.0,286046999.7,N
1564382695.8,286046999.8,N
1564382715.6,286047002.3,N
1564382735.5,286047002.2,N
1564382755.3,286047002.2,N
1564382775.1,286047002.8,N
1564382795.9,286047001.6,N
1564382815.7,286047004.2,Y
1564382835.6,286047002.6,P
1564382855.4,286046999.8,N
1564382875.2,286046999.8,N
1564382895.1,286047002.8,N
1564382896.0,286047002.8,N
1564382915.8,286047001.5,N
1564382935.7,286047002.2,N
1564382955.5,286047001.4,N
1564382975.3,286047001.4,N
1564382995.2,286047002.5,N
1564383015.0,286047002.1,N
1564383015.9,286047002.1,N
1564383035.8,286047000.5,N
1564383055.6,286047000.1,N
1564383075.4,286047001.0,N
1564383095.3,286046998.1,N
1564383115.1,286047000.7,N
1564383135.8,286047000.4,N
1564383155.7,286047000.3,N
1564383175.5,286047000.1,N
1564383195.4,286046999.9,N
1564383215.2,286047000.5,N
1564383235.0,286047000.2,N
1564383235.9,286047000.2,N
1564383255.8,286046999.8,N
1564383275.6,286047000.1,N
1564383295.4,286047000.8,N
1564383315.3,286047000.9,N
1564383335.1,286046998.3,N
1564383355.9,286047001.2,N
1564383375.7,286047000.5,N
1564383395.5,286047000.4,N
1564383415.4,286047002.4,N
1564383435.2,286047002.3,N
1564383455.1,286047002.0,N
1564383456.0,286047002.0,N
1564383475.8,286046999.7,N
1564383495.6,286047001.7,N
1564383515.5,286047003.6,Y
1564383535.3,286047001.6,P
1564383555.2,286046998.6,P
1564383575.9,286047004.2,P
1564383595.7,286047001.6,N
